GFSFLT2_prec_cloud_132.txt.gz
Cloud_Cover
0 0 0 8 28 24 23 22 24 100 97 100 88 100 54 5 5 52 88 4 0 3 31 5 5 5 5 5 0 0 0 0
1 0 0 8 17 33 47 43 31 50 100 100 100 100 14 4 5 34 24 16 0 9 7 5 5 5 5 5 5 5 0 0
96 68 34 24 5 12 30 98 98 100 60 91 100 100 100 71 74 97 70 5 52 19 11 35 11 33 20 5 56 5 4 0
100 100 100 100 100 38 23 62 99 100 100 99 89 100 94 62 49 62 89 16 80 7 64 82 8 31 35 13 34 33 5 4
100 92 41 4 13 14 48 100 99 61 100 100 100 100 100 100 77 46 43 65 79 78 36 83 34 97 41 52 30 49 54 36
100 96 96 8 4 0 0 0 22 98 100 100 100 100 100 100 100 100 100 100 100 100 100 100 100 40 87 100 34 26 81 100
86 43 84 98 86 6 0 0 3 9 96 100 100 100 100 100 100 100 100 100 100 100 100 100 100 98 100 100 90 25 87 88
77 91 100 100 100 68 1 0 0 4 1 18 95 100 100 100 100 100 100 100 100 100 100 100 100 100 100 100 100 38 33 100
100 100 100 100 100 16 4 4 0 3 0 0 0 2 94 100 100 100 100 100 100 71 89 100 100 100 100 100 100 22 92 100
100 95 93 49 34 97 28 35 6 2 0 0 0 0 1 6 89 36 100 100 100 100 100 100 100 100 100 100 100 100 100 85
18 5 5 5 22 89 94 97 85 5 0 0 0 0 0 5 27 93 98 100 100 100 100 100 100 100 100 100 100 100 100 100
17 5 5 5 28 20 6 59 100 67 7 0 0 2 0 0 5 83 100 63 100 100 100 100 100 100 100 100 100 100 100 100
5 5 93 100 100 83 5 0 5 51 65 1 0 0 0 0 0 9 91 99 100 100 100 100 100 100 100 100 100 100 100 100
5 5 5 5 5 5 14 46 77 21 93 100 100 100 33 0 0 0 4 100 79 100 100 100 100 100 100 100 100 100 100 100
5 5 5 5 5 5 10 5 7 10 5 6 21 5 3 0 0 0 0 31 100 100 100 100 100 100 100 100 100 100 100 100
5 30 17 10 24 47 91 100 100 100 100 100 59 5 5 0 0 0 0 0 90 98 100 100 100 100 100 100 100 100 100 100
5 100 58 100 98 100 100 100 100 100 100 100 100 100 100 83 1 0 0 1 5 17 100 100 100 100 100 100 100 100 100 100
48 99 68 56 62 96 100 100 100 100 100 100 100 100 100 100 92 93 80 18 1 56 98 56 100 100 100 100 100 100 100 100
53 53 83 95 100 100 78 98 100 100 100 100 100 100 100 100 99 100 100 100 95 15 35 100 100 100 100 100 95 100 100 100
98 95 100 100 100 100 74 100 100 100 100 100 100 100 100 100 100 100 100 100 100 100 76 19 100 100 100 100 100 100 100 100

GFSFLT2_prec_cloud_135.txt.gz
Cloud_Cover
94 79 45 13 24 40 53 89 24 20 6 28 56 100 93 83 17 23 5 5 7 37 0 5 5 5 5 5 4 6 26 1
100 100 99 72 58 5 23 90 82 93 36 100 100 35 83 97 84 13 5 5 0 5 7 5 48 5 5 5 5 47 5 8
100 100 100 100 100 96 35 42 78 42 51 45 99 89 83 39 5 5 0 5 3 2 50 100 100 93 66 5 15 57 46 14
100 100 100 100 80 91 87 100 94 63 46 99 100 78 94 78 91 100 100 82 4 6 6 39 99 63 89 45 26 93 28 5
100 100 100 100 89 65 5 11 49 100 100 86 95 71 75 99 100 79 78 100 60 100 79 100 47 99 73 80 72 100 73 5
65 66 67 100 100 100 100 100 9 69 100 100 95 99 52 44 100 100 100 100 100 100 97 100 57 99 100 79 62 100 100 38
6 29 99 100 100 100 90 94 85 22 63 100 100 100 89 95 100 100 100 100 100 100 100 100 100 70 92 100 100 100 100 8
87 6 21 100 55 93 100 37 93 97 89 71 14 87 100 91 72 100 100 100 100 100 100 100 100 100 98 100 92 100 100 99
10 5 5 5 16 17 90 100 100 100 88 6 21 1 3 4 3 43 100 100 100 100 100 100 100 100 100 98 98 92 100 100
5 12 52 47 90 100 100 91 98 90 8 7 3 0 0 14 2 0 14 95 100 100 100 100 100 100 100 100 100 91 75 100
0 0 2 2 0 0 4 5 5 5 8 5 1 38 1 0 0 3 30 49 100 86 98 100 100 100 100 100 100 100 100 51
3 1 3 0 0 1 0 0 1 4 33 7 9 4 0 0 0 0 0 1 65 100 83 100 100 100 100 100 100 100 100 60
5 5 5 5 5 3 0 0 0 0 0 0 0 0 0 0 0 0 0 0 11 62 92 100 100 100 100 100 100 99 100 100
5 5 5 5 5 5 11 5 0 0 0 0 12 5 1 0 0 0 0 0 0 4 98 100 100 100 100 100 100 100 100 100
5 5 5 5 5 5 5 5 5 5 4 24 25 42 40 41 24 3 0 1 4 0 16 100 100 100 100 100 100 100 100 100
5 21 7 5 18 16 44 57 32 35 67 64 99 100 94 67 69 63 29 15 5 0 0 5 100 100 100 100 100 99 100 100
8 56 32 52 94 97 100 100 96 100 100 100 92 100 100 100 100 100 91 82 72 38 32 48 13 87 100 100 100 52 100 100
12 36 50 72 94 100 100 100 99 100 100 100 100 100 100 100 100 100 100 99 100 98 69 40 8 3 88 100 100 51 100 100
19 64 77 92 98 100 100 100 100 87 100 100 100 100 100 100 100 100 100 100 100 100 100 100 100 100 100 100 100 100 100 100
70 72 90 88 100 100 100 100 100 100 100 100 100 100 100 100 100 100 100 100 100 100 100 100 100 93 100 99 100 100 100 100

GFSFLT2_prec_cloud_138.txt.gz
Cloud_Cover
100 93 100 100 86 100 22 96 99 40 0 0 1 5 18 57 40 98 100 100 100 78 95 100 100 100 5 63 84 5 8 22
100 100 100 100 97 100 100 100 45 29 80 7 0 5 91 100 88 40 100 100 100 92 67 100 100 100 80 5 80 38 46 51
100 100 100 100 100 100 100 100 100 62 14 10 68 12 54 95 44 53 99 100 100 93 97 100 100 100 82 64 100 92 96 32
100 100 100 100 10 44 37 55 92 99 88 88 56 37 46 56 74 53 29 100 100 99 71 36 100 100 98 64 99 100 92 49
46 43 87 100 100 92 100 93 93 98 100 100 90 57 43 42 40 53 68 100 100 100 100 49 100 96 100 100 84 100 83 95
8 5 5 6 5 5 27 5 5 5 87 100 100 93 94 62 79 95 37 99 100 100 100 100 100 100 91 100 100 100 92 100
5 28 63 25 6 5 5 10 54 10 44 4 68 97 100 82 86 76 92 100 67 100 100 100 100 100 100 100 100 45 100 100
5 5 10 15 5 54 14 28 72 20 7 5 7 98 99 98 34 78 74 58 100 100 100 100 100 100 100 100 100 96 100 100
10 7 8 20 34 5 5 87 95 85 96 19 6 32 100 100 99 94 55 100 92 98 100 100 100 100 100 100 100 100 100 100
81 27 5 5 18 5 0 0 0 27 77 92 60 41 66 96 34 6 4 19 89 68 93 100 100 100 100 100 100 100 100 100
90 24 7 1 0 0 0 0 0 2 0 0 0 0 0 0 0 0 0 0 2 28 32 100 100 100 100 100 100 100 100 100
52 32 5 5 0 0 0 0 0 0 0 0 0 0 0 0 0 0 0 0 0 1 10 0 34 93 70 100 100 100 100 100
49 5 5 5 5 0 0 0 0 0 0 0 0 0 0 0 0 0 0 0 0 0 0 3 53 42 100 100 100 100 100 100
0 0 0 0 0 0 0 0 0 0 0 0 0 0 12 0 2 0 0 0 0 0 0 0 0 0 90 100 100 100 100 100
0 2 5 5 5 5 5 3 1 0 0 0 3 25 42 70 74 43 29 19 0 0 0 0 0 0 92 100 100 100 100 100
5 5 5 5 5 5 19 17 15 9 8 25 55 75 100 99 100 100 100 89 63 21 2 5 0 0 16 70 100 100 100 100
5 5 5 5 10 28 50 67 80 80 100 100 100 83 100 100 100 100 100 100 100 100 100 98 29 1 0 11 77 100 100 100
5 5 5 5 6 39 75 94 89 99 100 100 100 100 100 100 100 100 100 100 100 100 100 100 100 76 4 59 100 100 100 100
5 5 5 8 40 61 91 100 100 100 100 100 100 100 100 100 100 100 100 100 100 100 100 100 100 100 99 96 100 100 100 100
5 5 5 29 67 74 98 100 100 100 100 100 100 100 100 100 100 100 100 100 100 100 100 100 100 100 100 98 100 100 94 100

GFSFLT2_prec_cloud_141.txt.gz
Cloud_Cover
80 67 100 100 100 84 89 100 100 100 100 98 75 6 1 2 36 99 100 8 52 100 100 100 100 100 100 100 100 5 75 40
50 33 91 93 73 46 97 100 60 44 81 100 100 96 8 4 5 66 100 76 5 74 100 100 100 67 70 100 100 15 5 100
50 7 4 5 20 44 83 100 99 82 100 98 88 82 100 95 100 100 92 100 100 71 73 100 96 38 100 100 100 66 22 100
8 5 1 0 0 0 4 5 41 100 96 56 78 59 94 98 100 100 100 100 100 48 84 94 99 58 94 100 100 82 55 100
6 5 5 1 0 0 0 5 6 49 67 100 100 84 72 70 39 100 100 100 100 100 94 97 100 100 97 100 100 100 100 73
5 5 5 5 5 5 4 4 5 5 5 12 5 12 37 40 47 45 96 100 100 100 100 100 94 100 100 100 100 100 100 100
5 5 5 3 3 5 5 5 2 18 34 5 46 37 11 4 0 37 78 31 100 100 100 100 100 100 100 100 100 100 100 94
5 16 5 5 6 5 5 7 5 5 8 5 6 6 11 5 5 0 4 11 40 54 79 100 100 100 100 100 100 100 100 100
5 24 54 77 69 85 53 78 85 92 97 73 5 3 0 5 5 2 0 2 15 58 32 25 69 100 100 100 100 100 100 100
5 18 63 76 66 53 34 66 47 10 17 10 3 4 0 0 0 1 2 26 40 100 20 7 5 56 100 100 100 100 100 100
23 26 42 37 40 70 87 76 12 5 1 0 0 0 0 0 0 0 0 0 0 2 44 5 2 5 96 100 100 100 100 100
100 100 100 97 45 5 5 0 0 0 0 0 0 0 0 0 0 0 0 0 0 0 0 5 2 2 13 100 100 100 100 100
100 79 5 3 0 0 0 0 0 0 0 0 0 0 0 17 0 0 0 0 0 0 0 0 0 0 0 99 6 100 100 100
3 0 0 0 0 0 0 1 0 1 1 1 1 1 22 37 42 43 30 22 5 0 0 0 0 0 0 86 5 71 100 100
0 0 2 5 5 5 5 5 5 5 5 5 6 47 59 64 98 100 100 100 92 57 21 14 2 0 0 1 5 4 73 100
5 5 5 5 5 5 5 5 6 14 39 57 82 96 100 100 100 100 100 100 99 43 67 95 60 6 0 0 0 4 19 30
5 5 5 5 5 7 6 18 49 70 91 100 100 100 100 100 100 100 100 100 100 100 100 67 76 87 20 0 0 0 0 45
5 5 5 5 5 11 30 64 88 97 100 100 100 100 100 100 100 100 100 95 90 100 100 100 100 100 81 41 51 18 7 67
5 5 5 5 5 36 49 72 88 100 100 100 100 100 100 100 100 100 100 100 100 100 100 100 100 100 100 91 46 81 98 88
0 3 3 5 13 58 68 83 95 100 100 100 100 100 100 100 100 100 100 100 100 100 100 100 100 100 100 100 100 99 56 82

GFSFLT2_prec_cloud_144.txt.gz
Cloud_Cover
33 40 38 100 100 95 83 81 94 58 100 94 62 23 88 92 5 4 17 5 6 91 6 5 2 87 94 100 100 99 49 86
88 84 13 48 80 74 99 100 42 17 45 23 5 14 5 7 56 39 90 96 71 84 60 10 7 5 41 14 60 19 77 100
5 8 5 5 5 10 5 5 5 3 4 5 6 36 47 6 100 100 100 100 100 100 100 100 100 99 6 76 60 6 41 100
5 5 0 2 4 5 5 26 5 5 4 0 4 98 100 42 5 41 100 100 100 100 100 100 100 95 21 18 99 37 40 82
5 4 0 0 0 0 0 0 0 0 0 5 5 5 33 100 79 65 79 100 100 100 100 100 100 63 43 23 56 100 43 8
5 4 5 2 4 4 1 0 0 0 2 5 0 4 0 0 9 3 8 7 26 100 100 100 100 100 100 100 100 100 86 100
29 5 5 5 2 1 1 0 5 3 4 5 2 4 5 0 0 0 0 1 6 81 100 100 90 100 100 100 100 100 100 95
7 38 61 80 91 35 35 8 16 5 4 1 4 4 5 5 4 0 0 0 1 20 25 99 85 100 100 100 100 100 100 100
84 6 46 8 9 6 5 5 5 5 6 15 6 10 23 5 5 5 5 5 0 2 2 8 34 100 100 100 100 100 100 100
100 100 100 100 100 100 99 100 100 68 74 93 62 43 7 4 4 4 0 0 0 0 0 0 2 93 100 100 100 100 100 100
100 100 100 100 100 100 100 100 100 100 100 99 45 5 7 5 4 0 0 0 0 0 0 0 1 22 79 100 100 100 100 100
38 46 37 31 27 22 21 46 6 8 19 8 1 0 0 0 0 0 0 0 0 0 0 0 0 0 10 25 80 94 100 100
1 0 0 0 0 0 0 0 0 0 0 0 0 0 0 3 1 0 0 0 0 0 0 0 0 0 0 1 4 5 14 36
4 4 3 0 0 0 0 0 0 0 0 0 1 5 5 5 5 47 100 75 15 2 48 27 0 0 0 0 0 0 5 75
4 4 0 0 0 1 1 0 0 2 2 5 5 5 5 5 46 98 100 100 100 100 85 80 65 25 0 15 0 0 0 1
2 1 2 5 4 5 5 5 5 5 5 6 8 44 78 100 100 100 100 100 100 100 100 66 100 83 2 0 0 24 16 0
0 4 5 5 5 4 5 5 5 5 6 54 99 94 100 100 100 100 100 100 75 84 100 100 99 99 100 46 1 0 0 63
5 5 5 0 1 5 5 5 12 22 51 72 98 100 100 100 100 100 100 100 100 100 100 100 100 100 90 99 94 100 68 81
0 0 3 0 1 4 5 5 47 51 90 100 100 100 100 100 100 100 100 100 100 100 100 100 100 100 100 100 100 95 100 100
0 0 0 0 1 4 5 56 100 98 99 100 98 91 95 100 100 100 100 100 100 100 100 100 100 100 100 100 100 100 100 100

GFSFLT2_prec_cloud_147.txt.gz
Cloud_Cover
4 5 5 5 1 5 71 100 100 100 100 100 100 68 100 75 5 1 0 1 5 100 100 100 100 100 76 5 46 100 95 22
80 69 9 1 5 0 5 11 34 93 10 73 67 5 3 5 0 4 1 1 10 75 100 100 100 97 100 98 8 5 29 22
5 5 3 5 5 2 0 5 5 9 38 5 5 5 5 5 0 4 5 100 50 17 61 86 55 98 100 100 6 15 82 53
5 5 5 0 5 5 5 0 0 1 3 5 5 0 0 0 0 0 5 58 99 24 100 100 72 97 96 100 61 58 40 71
5 5 5 3 3 5 3 0 0 0 0 0 0 0 0 0 0 0 0 0 6 15 60 100 100 100 100 100 100 100 100 86
5 5 0 2 2 1 1 2 0 0 1 2 0 0 0 0 0 0 0 0 0 0 63 40 98 100 70 100 100 100 100 100
5 16 5 5 36 78 67 9 5 5 0 1 0 0 0 0 5 0 0 0 0 0 0 75 38 7 8 66 100 100 100 100
36 5 9 82 100 100 100 100 93 58 31 10 5 42 15 5 5 5 4 0 0 0 0 0 86 100 71 22 100 100 100 100
60 88 100 100 100 99 72 92 100 82 63 88 26 6 5 5 7 5 3 5 0 4 1 0 5 85 71 11 96 100 100 100
5 5 56 60 87 86 99 97 92 87 100 95 100 100 100 100 41 1 1 4 0 0 2 5 0 5 22 90 78 100 100 100
7 5 5 5 2 0 0 2 0 0 0 0 0 0 0 6 2 11 5 3 0 0 0 0 0 0 0 19 66 100 100 100
85 80 5 5 1 0 0 0 0 0 0 0 0 0 0 0 0 0 1 1 0 0 0 0 7 0 0 0 6 62 100 100
17 5 0 0 2 0 0 0 0 0 0 0 0 0 0 0 5 5 5 5 5 5 0 0 0 0 0 0 0 3 90 100
1 3 5 5 5 0 4 5 1 0 0 0 0 0 1 5 5 5 5 27 81 95 100 48 0 7 98 18 6 0 0 96
32 17 5 5 0 5 8 0 0 1 4 5 5 5 5 5 5 48 89 100 100 100 100 100 100 26 39 100 32 18 16 1
5 5 5 3 0 0 1 5 5 5 5 5 5 5 5 5 77 80 100 100 100 100 100 100 100 100 80 35 100 100 100 44
38 5 0 0 1 5 1 5 5 5 5 5 5 5 5 43 44 82 96 100 100 100 100 100 100 100 100 95 94 100 100 100
5 5 5 5 4 0 2 5 5 6 5 21 22 48 16 22 90 62 97 96 100 100 100 100 100 100 100 100 100 100 100 100
5 5 3 1 0 1 5 5 32 98 80 70 71 93 70 74 76 64 87 79 100 100 100 100 100 100 100 100 100 100 100 100
2 0 5 0 0 4 5 5 99 85 59 90 92 97 100 79 100 82 79 100 100 100 100 100 100 100 100 100 100 100 100 100

GFSFLT2_prec_cloud_153.txt.gz
Cloud_Cover
0 5 5 5 5 5 5 25 5 32 25 89 57 5 2 5 2 0 3 0 3 6 2 0 0 7 52 10 8 95 100 100
5 19 31 18 5 5 5 38 13 5 5 20 10 5 5 5 4 3 4 17 0 0 0 38 1 0 3 25 5 5 99 97
100 98 100 82 5 46 54 12 4 1 5 4 5 5 5 5 5 5 5 5 2 30 17 13 47 6 0 5 16 82 100 100
83 73 96 79 64 9 1 0 2 1 0 0 0 1 3 5 5 5 5 5 5 0 2 33 45 18 47 28 54 45 33 100
5 6 52 80 37 5 5 5 32 4 2 5 5 5 5 1 2 5 5 5 5 5 2 0 1 38 30 31 50 56 67 74
0 5 6 38 69 49 5 5 4 0 0 0 0 0 0 0 0 0 4 5 5 5 0 0 0 0 3 0 20 73 94 97
0 0 0 0 0 2 0 0 0 0 0 0 0 0 0 0 0 0 0 0 0 0 4 5 5 1 0 0 0 4 41 55
0 0 0 0 0 1 0 0 0 3 1 3 5 5 4 2 3 1 0 0 0 2 2 0 0 3 4 0 0 0 2 40
5 5 0 1 2 5 2 1 0 0 0 0 0 0 0 0 0 0 0 0 0 0 0 0 0 0 0 0 0 0 0 1
100 5 0 4 0 0 0 0 0 0 0 0 0 0 0 0 0 1 0 0 1 0 0 0 0 0 0 0 0 0 0 0
73 5 1 0 0 0 0 0 0 0 0 0 0 0 0 2 5 5 5 5 5 5 5 5 5 4 0 0 0 0 0 0
14 1 0 0 4 0 0 0 0 0 0 0 0 2 5 5 5 5 5 5 5 5 7 5 5 5 5 10 0 0 0 0
4 0 3 8 5 4 5 5 1 0 0 5 5 5 5 5 5 5 5 6 21 6 17 61 22 12 88 50 1 0 0 0
32 100 100 86 4 0 0 0 0 5 5 5 5 5 5 5 6 34 5 38 21 59 64 89 100 100 100 100 30 2 2 0
100 100 100 100 11 5 5 4 5 5 5 5 5 5 5 5 8 41 7 40 100 100 70 100 100 100 100 100 100 92 70 3
28 80 78 28 8 37 13 5 5 5 5 5 5 5 5 5 7 20 46 61 71 100 97 100 100 100 100 100 100 100 100 73
53 5 5 5 5 9 5 5 5 5 5 5 5 5 5 5 11 85 100 85 99 100 100 89 100 100 100 100 100 100 100 100
36 5 5 5 5 5 5 5 5 5 5 9 65 75 59 64 100 100 100 95 91 100 100 100 100 100 100 100 100 100 100 100
5 26 5 5 5 5 5 5 5 5 11 20 100 90 57 93 99 100 100 88 76 98 100 100 98 100 100 100 100 100 100 100
99 16 5 5 5 6 5 5 5 8 9 6 21 92 8 6 24 31 61 98 65 41 94 77 98 84 100 100 100 100 100 100

GFSFLT2_prec_cloud_156.txt.gz
Cloud_Cover
52 6 5 5 64 14 74 100 100 66 74 33 5 0 1 0 0 0 0 0 0 0 0 36 97 15 1 9 0 0 3 6
4 2 5 5 5 39 82 24 5 5 5 0 0 1 0 4 4 0 0 0 0 0 0 1 35 99 89 78 34 4 0 7
63 82 16 1 0 0 0 0 0 5 5 4 5 1 0 0 0 0 0 0 0 0 0 1 0 30 60 96 100 99 26 23
0 0 0 0 0 0 0 0 5 5 5 5 5 4 0 0 5 5 0 0 3 4 0 0 0 0 0 32 84 94 95 54
0 0 0 0 0 0 0 0 0 0 1 5 1 0 0 3 2 0 0 0 0 0 0 0 0 4 0 0 18 48 58 65
0 0 0 0 0 0 0 0 0 0 0 0 0 0 0 0 4 4 0 4 0 0 0 0 0 0 0 0 0 0 1 40
0 0 1 1 0 0 0 1 3 0 4 3 5 5 5 2 2 4 1 3 4 4 3 0 0 0 0 0 0 0 0 0
0 2 5 3 5 5 1 2 3 5 8 38 5 5 5 5 4 4 2 2 1 0 0 0 0 0 0 0 0 0 0 0
0 0 2 5 5 5 5 4 5 5 5 5 4 5 5 4 0 0 3 0 3 2 1 0 0 0 0 0 0 0 0 0
0 0 0 0 1 1 0 0 0 0 1 0 0 0 0 0 4 4 5 5 5 5 5 6 19 5 5 3 0 0 0 0
0 0 1 5 5 2 3 0 2 5 3 4 4 4 4 5 5 5 5 5 5 5 6 5 5 5 5 5 5 0 0 0
0 3 5 5 5 1 0 2 4 5 7 8 5 5 5 5 5 5 5 5 5 5 8 5 6 5 66 80 5 1 0 0
0 8 5 5 2 4 5 5 5 5 13 5 5 5 5 5 5 24 5 6 13 29 84 51 18 68 43 5 5 0 0 0
4 5 5 2 0 5 5 5 5 5 5 5 5 5 5 5 5 76 9 82 77 19 26 79 100 30 71 92 63 5 88 1
5 86 5 5 5 5 5 5 5 5 5 5 5 5 5 5 5 38 100 99 98 82 100 100 100 100 99 100 100 99 62 6
53 48 6 8 43 54 60 6 8 5 9 5 5 5 5 5 20 68 100 44 99 83 88 100 100 100 100 100 100 100 100 76
49 68 5 13 55 60 26 5 23 24 5 5 5 5 5 5 31 100 98 51 33 100 100 99 100 100 100 100 100 100 100 100
81 5 5 20 20 44 5 5 37 6 5 13 5 5 5 5 5 74 95 54 100 75 99 100 100 100 98 100 100 100 100 100
11 100 62 83 10 6 6 9 5 5 6 18 25 64 6 14 14 7 45 38 71 47 72 100 100 100 100 100 100 100 100 100
95 100 100 40 66 65 8 8 5 6 5 5 24 20 9 5 14 5 5 18 40 93 99 99 100 100 100 100 98 100 100 100

GFSFLT2_prec_cloud_162.txt.gz
Cloud_Cover
42 21 0 0 0 0 0 0 0 0 0 0 0 0 0 0 0 0 0 0 0 0 0 0 2 2 4 5 0 6 17 17
10 0 0 0 0 0 0 0 0 0 0 0 0 0 0 0 0 0 0 0 0 0 0 0 0 0 0 0 0 0 13 54
1 0 0 0 0 0 0 0 0 0 0 0 0 0 0 0 0 0 0 0 0 0 0 0 0 0 0 0 0 0 0 28
5 4 0 0 0 0 0 0 0 0 0 0 0 0 0 0 0 0 0 0 0 0 0 0 0 0 0 0 0 0 0 0
5 0 0 0 0 0 5 5 1 0 2 5 0 0 0 1 3 4 2 0 1 0 0 0 0 0 0 0 0 0 0 0
5 3 0 0 0 0 0 3 5 5 5 5 5 5 5 5 5 5 5 3 0 0 2 0 0 3 0 0 0 0 0 0
5 5 4 3 0 0 0 0 0 0 0 1 5 5 5 6 5 5 5 5 5 5 4 44 97 15 5 4 0 0 0 0
6 5 5 1 0 0 0 0 3 0 0 0 2 4 4 5 5 5 4 3 5 4 5 36 87 100 13 35 1 0 0 0
48 5 8 5 0 1 4 5 5 0 0 5 5 5 5 5 5 5 5 4 5 5 5 6 86 100 100 99 3 0 0 0
81 27 10 4 11 25 56 84 66 7 5 5 5 5 5 5 5 5 1 5 3 5 5 5 5 5 14 5 3 0 0 0
95 18 78 100 75 87 88 100 54 5 5 5 5 5 5 5 5 3 0 5 5 5 5 5 5 5 5 5 0 0 0 0
100 100 100 100 99 86 9 12 5 15 10 5 5 5 5 5 5 3 0 4 5 5 5 0 0 5 5 1 0 0 1 0
100 100 100 100 100 87 81 100 5 5 5 16 5 5 5 5 5 5 5 8 14 45 5 3 2 10 9 5 1 5 6 14
100 100 100 100 100 100 100 92 5 11 37 5 5 8 5 5 5 5 5 38 86 3 6 7 14 78 99 46 6 3 49 0
100 100 100 100 100 91 26 6 28 64 5 5 90 18 9 12 37 27 17 4 5 5 16 81 35 32 100 100 100 48 68 7
100 100 100 100 50 26 39 5 49 11 59 14 64 16 52 62 22 59 5 5 5 10 21 70 79 98 93 100 100 100 100 87
97 99 38 5 8 21 43 51 20 71 49 71 55 10 11 5 5 5 5 5 5 35 44 50 97 100 100 100 100 100 100 100
9 8 34 20 18 82 94 81 91 97 97 88 5 31 5 5 5 5 5 5 5 5 26 74 100 100 100 100 100 100 100 100
100 99 54 42 94 100 100 100 100 100 57 18 5 5 10 5 5 5 5 5 88 5 3 10 56 100 100 100 100 100 100 100
100 100 100 100 100 100 100 100 57 62 78 44 6 6 5 5 10 12 36 5 5 5 5 3 19 100 100 100 100 100 100 100

GFSFLT2_prec_cloud_165.txt.gz
Cloud_Cover
100 33 5 7 12 0 0 0 0 0 0 0 0 0 0 5 5 4 2 0 0 0 0 0 0 0 0 0 0 0 1 4
100 19 4 0 0 0 0 0 0 0 0 0 0 0 0 0 0 0 0 0 0 0 0 0 0 0 0 0 0 0 0 31
26 39 9 0 0 0 0 0 0 0 0 0 0 0 0 0 0 0 0 0 0 0 0 0 0 0 0 0 0 0 0 0
6 3 5 5 2 2 0 0 0 0 0 0 0 0 0 0 0 0 0 0 5 5 5 5 5 5 5 3 3 2 0 0
5 4 5 5 11 5 5 1 0 0 0 5 3 4 0 5 5 2 0 0 0 1 5 2 5 5 5 5 5 5 5 0
5 4 5 5 5 5 5 5 2 0 4 0 3 5 5 5 5 5 5 2 0 0 0 0 0 0 0 0 0 5 16 5
28 5 4 5 5 5 4 4 0 0 0 0 0 1 4 5 5 5 4 1 5 2 0 0 0 0 1 0 2 4 71 99
96 20 26 5 5 5 5 1 0 0 0 2 5 5 5 21 5 5 5 5 5 5 5 5 5 3 5 5 5 5 1 21
87 91 100 100 100 59 4 0 16 5 5 10 69 5 5 5 5 39 5 5 5 5 5 4 5 5 5 5 0 0 0 0
100 100 100 98 74 14 54 100 100 88 7 5 5 5 5 5 12 8 41 46 12 5 5 5 5 37 5 4 0 0 2 1
88 100 100 100 100 100 100 59 99 100 100 7 40 100 61 5 55 40 5 5 5 5 5 4 5 5 4 0 0 0 0 0
59 36 100 100 100 100 100 100 100 100 100 100 100 100 80 5 6 5 5 5 3 5 4 5 4 5 0 0 0 0 0 3
35 5 19 81 100 100 100 100 100 100 100 100 100 99 88 5 5 27 31 5 2 1 5 0 0 0 0 4 0 0 0 7
25 47 49 100 100 100 100 100 100 100 100 100 100 88 14 5 25 36 6 5 5 5 2 0 0 0 10 5 4 0 0 0
94 100 100 100 100 100 100 100 100 100 100 99 48 9 5 22 29 59 17 6 5 5 1 0 0 0 18 81 45 18 74 2
99 100 100 100 100 100 100 100 100 96 99 81 54 9 64 92 100 100 94 44 5 0 4 1 0 5 5 60 100 100 100 83
71 100 100 100 100 100 79 95 80 72 91 58 38 86 100 100 100 18 5 5 5 5 5 5 5 0 47 100 100 100 100 100
100 100 100 97 84 79 95 100 100 100 100 100 97 100 100 77 21 5 5 5 7 5 49 4 1 8 100 100 100 100 100 100
100 98 98 100 100 100 100 100 100 100 100 100 100 100 41 8 14 18 69 94 8 18 5 5 5 23 100 100 100 100 100 100
100 100 100 100 100 100 100 100 100 100 100 100 100 100 57 59 55 32 7 8 35 5 5 5 5 11 77 100 100 100 100 100

GFSFLT2_prec_cloud_168.txt.gz
Cloud_Cover
98 90 98 9 1 0 0 0 0 0 0 0 0 0 0 0 0 0 0 0 15 24 5 2 1 0 0 0 0 0 0 0
6 5 5 0 4 5 1 0 0 0 0 0 0 0 0 0 0 0 0 0 0 0 0 0 0 0 0 0 0 0 0 0
94 7 5 3 5 5 4 0 0 0 0 0 0 0 0 0 0 0 0 0 0 0 0 0 2 2 0 0 0 0 0 0
100 94 5 4 5 4 4 0 5 2 2 0 0 0 0 0 0 0 0 0 0 3 5 5 5 1 5 4 0 3 0 0
88 73 5 5 5 5 5 1 3 5 5 5 3 5 1 4 1 0 0 0 0 0 0 2 4 0 0 0 0 0 0 0
64 95 5 5 1 5 5 6 4 8 5 5 2 2 5 5 5 5 1 0 0 1 5 3 0 1 0 0 0 0 0 0
100 10 11 5 5 5 5 42 47 95 5 5 5 5 5 2 0 3 5 5 5 5 5 5 2 4 2 2 5 5 0 0
59 64 80 19 5 16 95 100 100 100 20 84 100 70 5 5 4 5 4 4 3 18 32 5 0 0 0 0 0 0 0 0
82 73 100 96 49 100 100 100 41 97 100 100 100 55 99 76 17 5 40 74 5 6 7 5 4 0 0 0 0 0 0 0
84 96 100 100 55 84 100 100 100 100 100 100 100 100 100 100 100 100 100 100 56 5 5 5 5 2 4 5 0 0 0 0
98 90 96 99 5 55 48 100 100 100 100 100 100 100 100 100 100 100 100 98 92 5 4 4 59 58 15 4 0 0 0 0
60 48 80 80 5 5 30 100 100 100 100 100 100 100 100 100 100 100 100 100 94 10 5 9 49 12 5 4 3 0 0 5
100 54 96 30 5 5 52 100 100 100 100 100 100 100 100 100 100 100 100 81 11 5 3 7 18 43 5 5 5 5 2 5
100 100 99 64 72 100 100 100 100 100 100 100 100 100 100 100 100 100 44 19 5 5 64 52 37 16 5 5 39 6 44 5
100 100 100 47 96 100 100 100 100 100 100 100 100 100 100 100 100 100 57 5 6 52 82 9 5 5 22 5 30 38 69 87
100 100 100 86 100 100 100 100 100 100 100 100 100 100 100 100 100 100 99 86 32 30 22 16 52 12 5 17 66 98 99 87
100 100 100 100 100 100 100 100 100 100 100 100 100 100 100 100 92 100 100 96 99 100 67 6 18 5 6 98 100 94 96 100
100 100 100 100 100 100 88 100 100 100 100 100 100 100 100 100 94 97 100 100 100 32 83 14 5 5 25 100 100 100 100 100
100 100 100 100 100 100 100 100 100 100 100 100 100 100 100 100 100 100 100 100 100 67 5 5 5 29 8 100 100 100 100 100
100 100 100 100 100 100 100 100 100 100 100 100 100 100 100 100 100 100 100 97 8 36 5 2 5 5 5 29 100 100 100 100

GFSFLT2_prec_cloud_171.txt.gz
Cloud_Cover
100 100 100 100 99 18 13 5 5 5 0 0 0 0 0 0 0 0 0 0 0 0 0 0 0 3 5 2 0 0 0 0
100 100 93 11 5 5 11 11 7 50 3 0 0 0 0 0 0 0 0 0 0 0 0 0 0 0 0 0 0 0 0 0
57 38 5 5 5 56 100 17 45 92 5 1 0 0 0 0 0 0 0 0 0 0 0 0 0 4 2 0 0 0 0 0
88 54 36 37 69 100 100 99 100 38 5 5 5 0 0 4 4 0 0 0 0 0 0 1 0 0 1 4 0 0 3 0
82 45 98 73 94 93 95 100 100 21 5 97 6 13 22 5 5 5 5 5 5 5 0 1 5 4 0 5 5 0 0 2
34 16 96 89 100 100 70 94 98 84 22 99 100 100 95 5 53 5 5 5 5 5 5 5 2 0 0 0 0 0 0 0
93 51 56 92 98 97 98 95 58 46 100 100 100 100 75 97 100 100 94 54 76 5 5 5 4 5 5 1 5 0 0 0
50 91 22 99 100 97 76 91 98 74 99 100 100 100 99 100 100 100 100 100 100 84 73 100 78 6 5 5 5 3 5 2
64 90 45 80 100 92 66 59 90 90 95 100 100 100 100 100 100 100 100 100 100 100 100 100 100 96 48 6 14 5 1 0
55 100 29 91 85 100 62 89 65 99 100 100 100 100 100 100 100 100 100 100 100 100 100 100 100 100 100 98 17 5 2 5
55 23 21 98 100 99 70 100 100 100 85 99 87 100 100 100 100 100 100 94 100 100 100 100 100 100 100 100 31 5 5 5
74 76 5 40 100 100 100 100 100 100 90 86 100 100 100 100 100 100 100 100 100 100 100 100 100 100 100 35 5 16 6 24
100 92 95 38 100 100 100 100 100 100 100 100 100 100 100 100 100 100 100 100 100 100 100 100 100 100 56 20 74 86 16 5
97 94 100 94 96 100 100 100 100 100 100 100 95 100 100 100 100 100 100 100 100 100 100 51 73 89 80 98 100 100 88 93
99 100 100 95 100 100 100 100 100 100 100 100 98 100 100 100 100 100 100 100 100 100 100 79 76 70 91 97 94 100 100 100
85 100 100 55 100 100 100 100 100 100 100 99 100 100 100 100 100 100 100 25 53 100 100 100 100 100 90 32 37 89 100 86
55 100 100 76 100 100 100 100 100 100 100 100 100 100 100 100 100 100 100 99 79 100 100 81 22 61 47 29 54 36 74 89
100 100 100 100 100 100 100 100 100 100 100 100 100 100 100 100 100 100 97 100 100 99 70 21 63 7 5 86 20 69 100 100
100 100 100 100 100 100 100 100 100 100 100 100 100 100 100 100 100 100 100 100 100 100 88 100 32 32 28 5 49 72 93 100
100 100 100 100 100 85 95 100 100 100 100 100 100 100 100 100 100 100 100 100 100 100 100 99 46 5 75 10 70 83 97 100

GFSFLT2_prec_cloud_174.txt.gz
Cloud_Cover
100 100 100 100 100 100 100 100 81 14 5 63 100 7 5 5 0 0 0 0 0 0 0 0 0 0 0 0 0 0 0 1
100 100 100 100 100 100 39 73 100 100 86 9 86 5 5 5 0 0 0 0 0 0 0 0 0 0 0 0 0 0 0 0
100 100 100 100 91 31 69 28 100 100 98 15 9 5 5 6 4 1 0 1 5 0 0 0 0 0 0 2 0 0 5 5
100 100 100 38 38 63 64 99 100 98 30 13 43 5 45 45 10 53 78 1 1 5 5 5 5 5 3 2 5 41 5 5
100 92 78 73 45 7 22 77 98 100 100 42 50 5 5 100 100 100 100 24 22 97 54 62 14 15 5 5 5 3 0 4
8 83 100 44 46 33 52 9 97 100 100 30 60 39 100 100 100 100 100 100 100 100 100 100 100 77 72 78 41 6 5 3
86 97 80 28 5 22 12 48 85 100 100 88 99 77 96 80 78 85 100 100 100 100 100 100 100 100 90 34 26 98 90 35
100 95 78 21 27 5 9 37 43 100 100 100 100 73 62 42 100 100 100 100 100 100 100 100 100 100 100 100 92 60 95 98
100 99 8 62 33 32 58 36 34 63 100 100 100 99 70 80 100 100 100 100 100 100 100 100 100 100 100 100 100 66 100 100
100 59 47 82 42 36 100 100 30 5 49 95 100 100 100 87 98 100 100 100 100 100 100 100 100 100 100 100 100 100 100 100
87 44 42 100 100 95 100 100 96 68 45 88 100 100 100 100 100 100 100 100 100 100 100 100 100 100 100 100 64 90 100 100
19 16 58 100 100 95 100 100 100 96 99 98 100 100 100 100 100 100 100 100 100 100 100 100 100 100 100 100 99 100 100 73
77 5 41 100 100 89 100 100 100 93 100 100 100 100 100 100 100 100 100 100 100 100 100 100 100 100 100 100 100 100 93 27
5 87 5 5 6 37 85 100 100 100 100 98 100 100 100 100 100 100 100 100 100 100 100 97 100 100 100 100 98 82 28 49
64 48 41 35 59 6 55 95 100 100 100 100 100 100 100 100 100 100 100 100 100 100 100 100 100 100 100 88 99 100 80 19
100 94 50 39 5 5 31 99 100 100 100 100 100 100 100 100 100 100 100 100 100 100 84 73 61 75 100 95 37 70 100 63
100 100 100 94 28 96 97 100 100 100 100 100 100 100 100 100 100 100 100 100 100 100 50 9 22 93 100 85 90 94 93 38
100 100 100 100 100 100 100 100 100 100 100 94 100 100 95 100 100 100 100 100 100 100 95 77 98 100 100 100 66 69 93 100
100 100 100 100 100 100 100 100 100 100 100 100 100 99 91 100 100 100 100 100 100 100 100 100 61 100 100 22 88 84 10 94
100 100 100 100 76 100 100 100 100 100 100 100 100 100 100 100 100 100 100 100 100 100 100 100 100 100 99 100 48 5 8 100

GFSFLT2_prec_cloud_180.txt.gz
Cloud_Cover
100 100 100 64 26 2 54 97 100 100 100 100 20 5 5 8 99 98 44 5 4 0 3 0 0 0 0 0 0 0 0 0
100 100 100 88 39 60 100 100 100 100 99 12 5 5 5 5 75 74 26 12 5 5 5 5 0 5 0 0 0 0 0 0
100 100 93 100 100 100 100 100 100 100 9 5 5 5 5 5 7 30 5 5 5 5 5 45 76 94 5 0 0 0 0 6
100 100 60 100 100 100 100 100 100 17 27 5 5 14 5 13 5 5 5 5 5 5 24 100 100 100 86 6 3 41 19 5
100 94 80 100 100 100 100 100 46 29 12 25 5 15 5 10 68 65 16 5 5 5 5 46 87 99 100 100 44 95 100 100
100 100 100 100 100 100 100 93 6 5 26 94 58 12 9 5 5 5 33 100 91 69 5 5 75 68 34 71 100 100 100 100
96 100 100 100 100 100 100 48 6 10 98 100 95 46 96 71 77 5 5 20 99 100 86 50 15 98 100 100 100 100 100 100
100 100 100 100 100 100 100 46 99 100 100 100 100 100 90 100 98 99 63 5 44 100 100 100 95 38 98 100 98 100 100 100
100 81 100 100 100 100 100 100 98 52 71 99 68 82 100 100 100 100 100 99 42 98 100 100 100 100 100 100 98 100 100 100
100 98 58 99 100 100 100 100 99 86 54 33 66 45 98 100 100 100 46 99 100 98 100 100 100 100 100 100 100 100 100 100
96 100 100 48 100 100 100 100 100 100 100 100 99 55 100 100 100 100 88 39 84 100 100 100 100 100 100 100 100 100 100 100
100 100 100 60 100 100 100 100 100 100 100 100 100 100 100 100 100 99 87 63 88 100 100 100 100 100 100 100 100 100 100 100
100 100 100 64 97 97 100 100 100 100 100 98 100 54 79 100 100 100 100 80 96 100 77 80 100 100 100 100 100 100 100 100
100 100 100 52 71 70 100 100 100 100 100 100 85 94 100 100 100 100 100 100 100 98 96 100 100 100 100 100 100 100 92 87
100 100 100 40 39 96 100 100 100 100 100 100 72 79 100 100 100 100 100 100 100 100 100 100 100 100 100 100 100 100 100 100
100 100 100 82 61 56 48 86 24 100 100 100 99 100 100 100 100 100 100 100 100 100 100 100 100 100 100 100 100 33 97 83
97 100 100 100 100 95 97 100 95 90 100 100 100 100 100 100 100 100 100 100 100 100 81 100 100 100 100 100 100 95 51 43
100 100 100 100 100 100 100 100 100 100 100 100 100 100 100 97 100 100 100 100 100 100 100 100 100 100 100 100 100 67 100 100
86 100 100 100 100 100 100 100 100 100 100 100 100 100 100 100 100 100 100 100 100 100 100 100 100 100 100 100 100 94 30 73
46 100 100 100 100 100 100 100 100 100 100 100 100 100 100 100 100 100 100 100 100 100 100 100 100 100 96 100 100 100 100 100

GFSFLT2_prec_cloud_183.txt.gz
Cloud_Cover
100 83 100 100 100 100 29 15 5 100 100 100 100 57 0 0 0 3 3 5 5 0 0 0 0 0 0 0 0 0 0 0
100 100 64 100 100 89 50 100 100 100 100 100 88 0 5 4 1 4 5 5 3 0 0 0 0 0 0 0 5 3 0 0
100 100 100 100 84 68 48 28 100 100 100 92 0 3 5 5 6 5 4 5 5 5 4 4 4 0 5 100 100 50 4 0
100 100 100 100 97 92 100 100 100 100 98 24 5 5 5 76 5 5 5 5 5 4 5 5 5 5 5 38 100 100 65 5
100 100 100 100 100 100 100 100 100 100 19 5 5 5 5 9 82 5 5 5 8 5 5 5 5 20 5 5 89 100 100 92
100 100 100 100 91 100 100 100 100 100 16 36 56 6 5 5 6 52 50 87 12 5 5 5 5 47 13 5 82 100 100 99
100 100 100 96 99 100 100 100 100 98 84 49 15 87 96 62 7 16 30 5 5 23 77 8 18 22 60 32 5 67 100 100
100 100 100 100 100 100 100 100 100 96 76 50 5 5 15 23 89 16 47 5 72 92 100 34 94 97 99 100 100 100 94 99
100 100 100 100 100 100 100 100 100 100 48 16 92 93 100 100 83 60 72 52 100 100 100 100 100 100 100 100 100 100 100 100
90 100 100 100 100 100 100 100 100 100 75 67 69 100 96 100 95 52 74 33 62 66 80 100 93 99 100 100 100 100 100 100
95 100 100 100 100 100 100 100 100 100 100 84 83 100 98 100 88 82 72 87 39 66 86 100 100 100 99 100 100 100 100 100
100 100 100 100 100 100 100 100 100 100 100 99 82 90 100 100 72 65 70 93 95 96 98 97 92 98 65 85 43 97 100 100
100 100 100 100 100 100 100 100 100 100 100 100 100 100 86 70 82 82 59 100 100 100 98 100 94 54 99 82 100 100 100 100
100 100 100 100 100 100 100 100 100 100 100 100 100 100 100 86 91 86 98 100 100 100 100 98 100 99 100 82 98 100 100 100
100 100 100 100 100 100 100 100 100 100 100 100 100 100 100 100 67 93 96 100 98 100 100 96 98 88 82 88 100 100 100 94
24 100 100 100 100 100 100 100 100 100 100 100 100 100 100 100 98 89 100 100 100 100 100 100 100 97 99 100 100 100 100 100
4 88 100 100 100 100 100 100 100 100 100 100 100 100 100 100 100 100 100 94 100 100 89 100 100 84 100 100 100 85 73 96
6 78 100 100 100 100 100 100 100 100 100 100 100 100 100 100 100 100 100 100 100 100 100 100 100 100 100 100 95 22 32 24
16 44 99 100 100 100 100 100 100 100 100 100 100 100 100 100 100 100 100 100 100 100 100 97 100 100 100 100 100 100 100 94
15 38 78 100 100 100 100 100 100 100 100 100 100 100 100 100 100 100 100 100 100 100 100 100 100 100 100 100 83 53 99 88